Location: Newark
(36.1358°N, 115.1208°W)
Time: 01:30:46
(UTC+00:00)

Vanguard 1 Rocket - Pass Details

Date: 25 February 2020
Orbit: 650 x 4226 km, 34.3° (Epoch: 08 April)

Event Time Altitude Azimuth Distance (km) Brightness Sun altitude
Rises 08:51:54 0° 242° (WSW) 6,252 - -60.0°
Reaches altitude 10° 08:56:55 10° 239° (WSW) 4,644 - -59.5°
Maximum altitude 09:07:48 55° 165° (SSE) 1,490 - -58.3°
Drops below altitude 10° 09:13:41 10° 88° (E) 2,582 - -57.5°
Sets 09:15:43 0° 84° (E) 3,323 - -57.3°
